Regional Weather Roundup
Issued by NWS

Home | Current Version | Previous Version | Graphics & Text | Print | Product List | Glossary On
Versions: 1 2 3 4 5 6 7 8 9 10 11 12 13 14 15 16 17 18 19 20 21 22 23 24 25 26 27 28 29 30 31 32 33 34 35 36 37 38 39 40 41 42 43 44 45 46 47 48 49 50
000
ASUS45 KCYS 201910
RWRWY

WYOMING REGIONAL WEATHER ROUNDUP
NATIONAL WEATHER SERVICE CHEYENNE WY
100 PM MDT WED AUG 20 2014

NOTE:  "FAIR" INDICATES FEW OR NO CLOUDS BELOW 12,000 FEET
WITH NO SIGNIFICANT WEATHER AND/OR OBSTRUCTIONS TO VISIBILITY.

WYZ001-202000-
YELLOWSTONE NATIONAL PARK

CITY           SKY/WX    TMP DP  RH WIND       PRES   REMARKS
LK YELLOWSTONE   N/A     56  42  59 VRB7      30.15S
W YELLOWSTONE  NOT AVBL

$$
WYZ002>013-054>058-071-098>099-202000-
NORTHERN WYOMING

CITY           SKY/WX    TMP DP  RH WIND       PRES   REMARKS
JACKSON        SUNNY     61  48  63 W3        30.08F
CODY           PTSUNNY   72  50  46 N12       29.94S
GREYBULL       PTSUNNY   79  44  28 NW7       29.85F
WORLAND        PTSUNNY   78  46  32 NE8       29.86F
SHERIDAN       CLOUDY    76  45  33 NW22      29.87R
BUFFALO        CLOUDY    73  47  39 N17       29.92R
GILLETTE       SUNNY     80  44  27 NW17G23   29.85R
HULETT         FAIR      81  46  30 MISG      29.83
NEWCASTLE      FAIR      84  37  18 MISG      29.81

$$
WYZ014>020-022>026-101>103-202000-
CENTRAL WYOMING

CITY           SKY/WX    TMP DP  RH WIND       PRES   REMARKS
BIG PINEY      PTSUNNY   70  43  37 NW7       30.10F
PINEDALE       PTCLDY    66  41  39 NW6       30.11F
DUBOIS         FAIR      63  41  45 N18G25    30.07F
LANDER         MOSUNNY   79  40  24 SE6       29.95F
RIVERTON       MOSUNNY   80  36  20 NW22G28   29.94F
CASPER         MOSUNNY   78  41  26 NW12      29.92S
DOUGLAS        PTSUNNY   82  46  28 NW18      29.89S

$$
WYZ021-027>030-104>119-202000-
SOUTHERN WYOMING

CITY           SKY/WX    TMP DP  RH WIND       PRES   REMARKS
EVANSTON       MOSUNNY   69  47  45 SW15      30.13F
KEMMERER       MOCLDY    68  45  42 W14       30.12F
FORT BRIDGER   FAIR      70  50  49 W16G24    30.15F
ROCK SPRINGS   CLOUDY    68  47  46 W12       30.09F
DIXON          RAIN      56  54  91 W8        30.16R
RAWLINS        PTSUNNY   69  48  47 W15G24    30.07F
SARATOGA       MOCLDY    64  52  63 MISG      30.12S
LARAMIE        SUNNY     73  45  36 SW20G28   30.07F
CHEYENNE       MOSUNNY   78  45  30 W26G37    30.00F
TORRINGTON     SUNNY     88  48  25 W18G29    29.83F
PINE BLUFFS    FAIR      82  43  24 W17G26    29.93S

$$


USA.gov is the U.S. government's official web portal to all federal, state and local government web resources and services.